Simultaneous Nadir Overpasses (SNOs) Predictions

Prediction of SNOs between NOAA-19 and TERRA Satellite Orbit:

Table of predicted SNOs for the next 14.0 days since TLE Epoch: 8/7/2021
Index Date (NOAA-19) Time (NOAA-19) Lat,Lon (NOAA-19) SZA (NOAA-19 ) Date (TERRA) Time (TERRA) Lat,Lon (TERRA) SZA (TERRA ) Distance(km) Time Diff (sec)
1 08/08/2021 11:47:06 80.37, 37.08 65.92 08/08/2021 11:46:57 80.35, 37.20 65.91 3.05 9
2 08/10/2021 17:20:19 -80.38, 133.76 113.43 08/10/2021 17:20:39 -80.36, 133.83 113.43 2.33 20
3 08/10/2021 18:11:13 80.36, -58.59 66.61 08/10/2021 18:10:05 80.36, -58.50 66.59 1.82 68
4 08/12/2021 22:53:22 80.39,-129.55 67.26 08/12/2021 22:54:20 80.37,-129.50 67.27 1.90 58
5 08/12/2021 23:44:26 -80.37, 38.02 112.72 08/12/2021 23:43:47 -80.37, 38.13 112.73 2.09 39
6 08/15/2021 05:17:29 80.37, 134.74 67.98 08/15/2021 05:17:28 80.38, 134.76 67.99 0.59 1
7 08/17/2021 10:50:41 -80.37,-128.51 111.30 08/17/2021 10:51:10 -80.38,-128.61 111.29 2.12 29
8 08/17/2021 11:41:36 80.36, 39.01 68.73 08/17/2021 11:40:36 80.38, 39.01 68.72 2.21 60
9 08/19/2021 16:23:45 80.39, -31.99 69.43 08/19/2021 16:24:51 80.38, -32.05 69.44 1.38 66



Historial Predications of SNOs between NOAA-19 and TERRA
